Location: Jackson Park
(37.2862°N, 79.9123°W)
Time: 19:42:38
(UTC+00:00)

Vanguard 3 - Pass Details

Date: 10 May 2026
Orbit: 507 x 3205 km, 33.4° (Epoch: 31 May)

Event Time Altitude Azimuth Distance (km) Brightness Sun altitude
Rises 21:03:54 0° 250° (WSW) 7,092 12.9 36.7°
Reaches altitude 10° 21:08:38 10° 249° (WSW) 6,121 12.8 35.8°
Maximum altitude 21:28:03 73° 169° (S) 2,874 10.4 32.0°
Drops below altitude 10° 21:41:31 10° 89° (E) 4,455 10.5 29.3°
Sets 21:44:23 0° 87° (E) 5,153 10.7 28.7°
